Terminal Aerodrome Forecast
Issued by NWS Pueblo, CO

Home | Current Version | Previous Version | Text Only | Print | Product List | Glossary On
Versions: 1 2 3 4 5 6 7 8 9 10 11 12 13 14 15 16 17 18 19 20 21 22 23 24 25 26 27 28 29 30
000
FTUS45 KPUB 030521
TAFALS
TAF
KALS 030521Z 0306/0406 VRB06KT P6SM VCSH FEW050 BKN080
     FM030800 VRB04KT P6SM FEW050 BKN080
     FM031800 24012KT P6SM VCTS SCT060CB BKN100
     FM040100 VRB06KT P6SM SCT100 BKN150=

USA.gov is the U.S. government's official web portal to all federal, state and local government web resources and services.